Location: Beekmeers
(50.8953°N, 3.6968°E)
Time: 17:10:18
(UTC+00:00)

COBE Rocket - Pass Details

Date: 07 August 2024
Orbit: 676 x 777 km, 97.1° (Epoch: 06 September)

Event Time Altitude Azimuth Distance (km) Brightness Sun altitude
Rises 02:16:06 0° 2° (N) 3,088 8.1 -15.7°
Reaches altitude 10° 02:18:50 10° 347° (NNW) 2,152 6.9 -15.4°
Maximum altitude 02:22:17 21° 300° (WNW) 1,536 5.5 -15.1°
Enters shadow 02:24:41 14° 262° (W) 1,848 5.6 -14.9°
